Weather History for Russell, KS

Change the Weather History Date:

Saturday, February 2, 2013

  Actual Average Record
Temperature  
Mean Temperature 38 °F -  
Max Temperature 54 °F 36 °F 70 °F (1962)
Min Temperature 21 °F 15 °F -8 °F (1989)
Degree Days  
Heating Degree Days 28    
Moisture  
Dew Point 27 °F    
Average Humidity 68    
Maximum Humidity 96    
Minimum Humidity 33    
Precipitation  
Precipitation 0.00 in - - ()
Sea Level Pressure  
Sea Level Pressure 30.25 in    
Wind  
Wind Speed 10 mph (WNW)    
Max Wind Speed 15 mph    
Max Gust Speed -    
Visibility 10 miles    
Events      
Averages and records for this station are not official NWS values.
T = Trace of Precipitation, MM = Missing Value Source: NWS Daily Summary

Daily Weather History Graph

Daily Weather History Graph

Search for Another Location

Airport:

Trip Planner

Search our weather history database for the weather conditions in past years. The results will help you decide how hot, cold, wet, or windy it might be!

Date:

Astronomy

Feb. 02, 2013 Rise Set
Actual Time 7:40 AM CST 5:58 PM CST
Civil Twilight 7:12 AM CST 6:26 PM CST
Nautical Twilight 6:40 AM CST 6:58 PM CST
Astronomical Twilight 6:09 AM CST 7:29 PM CST
Moon 12:01 AM CST (2/2) 10:56 AM CST (2/2)
Length of Visible Light 11h 14m
Length of Day
10h 18m
Waning Gibbous, 59% of the Moon is Illuminated
Feb 2
Waning Gibbous
Feb 3
Last Quarter
Feb 10
New
Feb 17
First Quarter
Feb 25
Full

Hourly Weather History & Observations

Time (CST) Temp. Windchill Dew Point Humidity Pressure Visibility Wind Dir Wind Speed Gust Speed Precip Events Conditions
12:53 AM 32.0 °F 24.2 °F 27.0 °F 82% 30.16 in 10.0 mi West 9.2 mph - N/A   Overcast
1:53 AM 33.1 °F 26.9 °F 28.9 °F 85% 30.18 in 10.0 mi NW 6.9 mph - N/A   Scattered Clouds
2:53 AM 30.9 °F 23.5 °F 27.0 °F 85% 30.21 in 10.0 mi NW 8.1 mph - N/A   Clear
3:53 AM 32.0 °F 23.6 °F 28.0 °F 85% 30.22 in 10.0 mi NW 10.4 mph - N/A   Clear
4:53 AM 28.0 °F 19.3 °F 25.0 °F 88% 30.22 in 10.0 mi West 9.2 mph - N/A   Clear
5:53 AM 26.6 °F 19.1 °F 24.8 °F 93% 30.18 in 10.0 mi West 6.9 mph - N/A   Clear
6:53 AM 25.0 °F 16.3 °F 24.1 °F 96% 30.28 in 10.0 mi West 8.1 mph - N/A   Clear
7:53 AM 21.9 °F - 21.0 °F 96% 30.28 in 9.0 mi North - - N/A   Clear
8:53 AM 27.0 °F 19.5 °F 24.1 °F 89% 30.29 in 10.0 mi WSW 6.9 mph - N/A   Clear
9:53 AM 37.9 °F 30.5 °F 30.0 °F 73% 30.30 in 10.0 mi West 11.5 mph - N/A   Clear
10:53 AM 41.0 °F 34.7 °F 30.0 °F 65% 30.31 in 10.0 mi NW 10.4 mph - N/A   Clear
11:53 AM 43.0 °F 35.7 °F 30.9 °F 62% 30.30 in 10.0 mi WNW 15.0 mph - N/A   Clear
12:53 PM 46.9 °F - 33.1 °F 59% 30.26 in 10.0 mi WNW 12.7 mph - N/A   Clear
1:53 PM 51.1 °F - 33.1 °F 50% 30.23 in 10.0 mi NW 8.1 mph - N/A   Clear
2:53 PM 53.1 °F - 30.9 °F 43% 30.22 in 10.0 mi WNW 10.4 mph - N/A   Clear
3:53 PM 54.0 °F - 28.0 °F 37% 30.21 in 10.0 mi West 10.4 mph - N/A   Clear
4:53 PM 54.0 °F - 25.0 °F 33% 30.21 in 10.0 mi WNW 15.0 mph - N/A   Clear
5:53 PM 45.0 °F 39.7 °F 28.0 °F 52% 30.22 in 10.0 mi West 10.4 mph - N/A   Clear
6:53 PM 39.0 °F 33.4 °F 27.0 °F 62% 30.25 in 10.0 mi West 8.1 mph - N/A   Clear
7:53 PM 39.2 °F 33.0 °F 26.6 °F 61% 30.22 in 10.0 mi West 9.2 mph - N/A   Clear
8:53 PM 35.1 °F 27.4 °F 25.0 °F 67% 30.29 in 10.0 mi West 10.4 mph - N/A   Clear
9:53 PM 37.9 °F 30.0 °F 25.0 °F 60% 30.28 in 10.0 mi WNW 12.7 mph - N/A   Clear
10:53 PM 37.9 °F 30.5 °F 24.1 °F 57% 30.28 in 10.0 mi WNW 11.5 mph - N/A   Clear
11:53 PM 37.9 °F 30.5 °F 24.1 °F 57% 30.30 in 10.0 mi WNW 11.5 mph - N/A   Clear